Time,TemperatureF,DewpointF,PressureIn,WindDirection,WindDirectionDegrees,WindSpeedMPH,WindSpeedGustMPH,Humidity,HourlyPrecipIn,Conditions,Clouds,dailyrainin,SoftwareType,DateUTC
2013-09-22 00:02:00,69.5,68.6,29.76,North,349,1.0,1.0,97,0.00,,,0.00,Wunderground v.1.15,2013-09-22 05:02:00,
2013-09-22 00:08:00,69.4,68.8,29.77,NNE,19,2.0,3.0,98,0.00,,,0.00,Wunderground v.1.15,2013-09-22 05:08:00,
2013-09-22 00:13:00,69.4,68.8,29.76,North,355,2.0,2.0,98,0.04,,,0.01,Wunderground v.1.15,2013-09-22 05:13:00,
2013-09-22 00:18:00,69.3,68.7,29.77,North,355,2.0,2.0,98,0.09,,,0.01,Wunderground v.1.15,2013-09-22 05:18:00,
2013-09-22 00:23:00,69.2,68.6,29.77,North,11,1.0,1.0,98,0.09,,,0.02,Wunderground v.1.15,2013-09-22 05:23:00,
2013-09-22 00:32:00,69.1,68.5,29.77,North,5,1.0,1.0,98,0.06,,,0.03,Wunderground v.1.15,2013-09-22 05:32:00,
2013-09-22 00:37:00,69.1,68.5,29.77,North,351,1.0,1.0,98,0.22,,,0.05,Wunderground v.1.15,2013-09-22 05:37:00,
2013-09-22 00:47:00,68.9,68.3,29.77,NNW,346,1.0,2.0,98,0.15,,,0.09,Wunderground v.1.15,2013-09-22 05:47:00,
2013-09-22 00:52:00,68.9,68.3,29.77,North,11,1.0,1.0,98,0.13,,,0.10,Wunderground v.1.15,2013-09-22 05:52:00,
2013-09-22 00:57:00,68.9,68.3,29.77,North,10,1.0,1.0,98,0.06,,,0.10,Wunderground v.1.15,2013-09-22 05:57:00,
2013-09-22 01:03:00,68.8,68.5,29.77,North,350,0.0,0.0,99,0.04,,,0.10,Wunderground v.1.15,2013-09-22 06:03:00,
2013-09-22 01:08:00,68.8,68.5,29.77,North,355,0.0,0.0,99,0.04,,,0.11,Wunderground v.1.15,2013-09-22 06:08:00,
2013-09-22 01:13:00,68.8,68.5,29.77,NNW,340,2.0,4.0,99,0.04,,,0.11,Wunderground v.1.15,2013-09-22 06:13:00,
2013-09-22 01:23:00,68.8,68.5,29.77,North,360,3.0,3.0,99,0.04,,,0.12,Wunderground v.1.15,2013-09-22 06:23:00,
2013-09-22 01:28:00,68.8,68.5,29.77,North,5,2.0,3.0,99,0.08,,,0.13,Wunderground v.1.15,2013-09-22 06:28:00,
2013-09-22 01:38:00,68.7,68.4,29.76,North,360,2.0,2.0,99,0.23,,,0.17,Wunderground v.1.15,2013-09-22 06:38:00,
2013-09-22 01:43:00,68.7,68.4,29.76,North,360,2.0,2.0,99,0.15,,,0.18,Wunderground v.1.15,2013-09-22 06:43:00,
2013-09-22 01:48:00,68.7,68.4,29.76,North,360,2.0,4.0,99,0.09,,,0.19,Wunderground v.1.15,2013-09-22 06:48:00,
2013-09-22 01:57:00,68.6,68.3,29.76,North,349,2.0,3.0,99,0.12,,,0.21,Wunderground v.1.15,2013-09-22 06:57:00,
2013-09-22 02:03:00,68.6,68.3,29.76,North,5,2.0,2.0,99,0.10,,,0.22,Wunderground v.1.15,2013-09-22 07:03:00,
2013-09-22 02:12:00,68.6,68.3,29.75,North,360,2.0,3.0,99,0.21,,,0.26,Wunderground v.1.15,2013-09-22 07:12:00,
2013-09-22 02:17:00,68.6,68.3,29.75,NNE,13,2.0,3.0,99,0.19,,,0.28,Wunderground v.1.15,2013-09-22 07:17:00,
2013-09-22 02:22:00,68.6,68.3,29.75,North,350,1.0,1.0,99,0.11,,,0.28,Wunderground v.1.15,2013-09-22 07:22:00,
2013-09-22 02:27:00,68.5,68.2,29.75,North,10,1.0,1.0,99,0.09,,,0.29,Wunderground v.1.15,2013-09-22 07:27:00,
2013-09-22 02:32:00,68.5,68.2,29.75,North,360,2.0,3.0,99,0.07,,,0.30,Wunderground v.1.15,2013-09-22 07:32:00,
2013-09-22 02:42:00,68.4,68.1,29.75,NNW,340,1.0,10.0,99,0.06,,,0.31,Wunderground v.1.15,2013-09-22 07:42:00,
2013-09-22 02:47:00,68.4,68.1,29.75,North,355,2.0,10.0,99,0.06,,,0.31,Wunderground v.1.15,2013-09-22 07:47:00,
2013-09-22 02:52:00,68.4,68.1,29.75,North,351,2.0,5.0,99,0.08,,,0.32,Wunderground v.1.15,2013-09-22 07:52:00,
2013-09-22 03:03:00,68.3,68.0,29.75,NNE,13,3.0,3.0,99,0.05,,,0.32,Wunderground v.1.15,2013-09-22 08:03:00,
2013-09-22 03:12:00,68.3,68.0,29.75,NNW,344,2.0,7.0,99,0.08,,,0.33,Wunderground v.1.15,2013-09-22 08:12:00,
2013-09-22 03:17:00,68.3,68.0,29.74,North,360,3.0,7.0,99,0.08,,,0.34,Wunderground v.1.15,2013-09-22 08:17:00,
2013-09-22 03:22:00,68.2,67.9,29.74,NNW,348,3.0,7.0,99,0.06,,,0.34,Wunderground v.1.15,2013-09-22 08:22:00,
2013-09-22 03:27:00,68.2,67.9,29.74,North,355,4.0,7.0,99,0.04,,,0.34,Wunderground v.1.15,2013-09-22 08:27:00,
2013-09-22 03:37:00,68.3,68.0,29.74,NNW,344,2.0,5.0,99,0.00,,,0.34,Wunderground v.1.15,2013-09-22 08:37:00,
2013-09-22 03:47:00,68.3,68.0,29.74,North,5,1.0,3.0,99,0.00,,,0.34,Wunderground v.1.15,2013-09-22 08:47:00,
2013-09-22 03:52:00,68.3,68.0,29.73,North,355,2.0,2.0,99,0.00,,,0.34,Wunderground v.1.15,2013-09-22 08:52:00,
2013-09-22 04:02:00,68.3,68.0,29.73,NNE,19,3.0,6.0,99,0.00,,,0.34,Wunderground v.1.15,2013-09-22 09:02:00,
2013-09-22 04:08:00,68.3,68.0,29.73,North,360,3.0,6.0,99,0.00,,,0.34,Wunderground v.1.15,2013-09-22 09:08:00,
2013-09-22 04:17:00,68.2,67.9,29.73,NNW,348,2.0,5.0,99,0.00,,,0.34,Wunderground v.1.15,2013-09-22 09:17:00,
2013-09-22 04:22:00,68.2,67.9,29.73,North,5,2.0,3.0,99,0.00,,,0.34,Wunderground v.1.15,2013-09-22 09:22:00,
2013-09-22 04:27:00,68.1,67.8,29.73,North,355,3.0,7.0,99,0.00,,,0.34,Wunderground v.1.15,2013-09-22 09:27:00,
2013-09-22 04:32:00,68.1,67.8,29.73,NNE,15,3.0,3.0,99,0.00,,,0.34,Wunderground v.1.15,2013-09-22 09:32:00,
2013-09-22 04:37:00,68.1,67.5,29.73,NNE,16,2.0,3.0,98,0.00,,,0.34,Wunderground v.1.15,2013-09-22 09:37:00,
2013-09-22 04:47:00,68.0,67.4,29.73,North,360,3.0,3.0,98,0.00,,,0.34,Wunderground v.1.15,2013-09-22 09:47:00,
2013-09-22 04:52:00,68.0,67.4,29.73,North,360,3.0,3.0,98,0.00,,,0.34,Wunderground v.1.15,2013-09-22 09:52:00,
2013-09-22 05:02:00,67.9,67.3,29.73,North,355,2.0,2.0,98,0.00,,,0.35,Wunderground v.1.15,2013-09-22 10:02:00,
2013-09-22 05:12:00,67.7,67.1,29.73,North,351,3.0,3.0,98,0.08,,,0.36,Wunderground v.1.15,2013-09-22 10:12:00,
2013-09-22 05:18:00,67.7,67.1,29.73,NNE,13,3.0,3.0,98,0.07,,,0.36,Wunderground v.1.15,2013-09-22 10:18:00,
2013-09-22 05:23:00,67.6,67.0,29.73,NNE,22,2.0,5.0,98,0.05,,,0.37,Wunderground v.1.15,2013-09-22 10:23:00,
2013-09-22 05:27:00,67.6,67.0,29.74,North,5,1.0,5.0,98,0.05,,,0.37,Wunderground v.1.15,2013-09-22 10:27:00,
2013-09-22 05:32:00,67.6,67.0,29.74,North,355,1.0,3.0,98,0.05,,,0.37,Wunderground v.1.15,2013-09-22 10:32:00,
2013-09-22 05:37:00,67.6,67.0,29.74,North,9,0.0,3.0,98,0.04,,,0.37,Wunderground v.1.15,2013-09-22 10:37:00,
2013-09-22 05:47:00,67.6,67.0,29.74,North,360,2.0,4.0,98,0.00,,,0.37,Wunderground v.1.15,2013-09-22 10:47:00,
2013-09-22 05:52:00,67.5,66.9,29.74,NNW,342,1.0,1.0,98,0.00,,,0.37,Wunderground v.1.15,2013-09-22 10:52:00,
2013-09-22 05:57:00,67.5,66.9,29.74,NW,324,1.0,1.0,98,0.00,,,0.37,Wunderground v.1.15,2013-09-22 10:57:00,
2013-09-22 06:03:00,67.4,66.8,29.74,North,360,1.0,1.0,98,0.00,,,0.37,Wunderground v.1.15,2013-09-22 11:03:00,
2013-09-22 06:08:00,67.4,66.8,29.74,North,360,1.0,1.0,98,0.00,,,0.37,Wunderground v.1.15,2013-09-22 11:08:00,
2013-09-22 06:13:00,67.3,66.7,29.74,North,355,1.0,1.0,98,0.00,,,0.37,Wunderground v.1.15,2013-09-22 11:13:00,
2013-09-22 06:23:00,67.2,66.6,29.75,North,355,0.0,0.0,98,0.00,,,0.37,Wunderground v.1.15,2013-09-22 11:23:00,
2013-09-22 06:28:00,67.2,66.6,29.75,North,355,0.0,2.0,98,0.00,,,0.37,Wunderground v.1.15,2013-09-22 11:28:00,
2013-09-22 06:33:00,67.1,66.5,29.75,NNE,19,1.0,1.0,98,0.00,,,0.37,Wunderground v.1.15,2013-09-22 11:33:00,
2013-09-22 06:43:00,67.0,66.4,29.75,NNW,327,2.0,3.0,98,0.00,,,0.37,Wunderground v.1.15,2013-09-22 11:43:00,
2013-09-22 06:52:00,66.8,66.2,29.76,NNW,334,2.0,2.0,98,0.00,,,0.37,Wunderground v.1.15,2013-09-22 11:52:00,
2013-09-22 07:03:00,66.8,66.2,29.76,North,355,1.0,1.0,98,0.00,,,0.37,Wunderground v.1.15,2013-09-22 12:03:00,
2013-09-22 07:08:00,66.7,66.1,29.76,North,360,2.0,5.0,98,0.00,,,0.37,Wunderground v.1.15,2013-09-22 12:08:00,
2013-09-22 07:13:00,66.7,66.1,29.76,North,9,3.0,3.0,98,0.00,,,0.37,Wunderground v.1.15,2013-09-22 12:13:00,
2013-09-22 07:23:00,66.6,66.0,29.77,North,355,2.0,2.0,98,0.00,,,0.37,Wunderground v.1.15,2013-09-22 12:23:00,
2013-09-22 07:28:00,66.6,66.0,29.77,North,349,1.0,2.0,98,0.00,,,0.37,Wunderground v.1.15,2013-09-22 12:28:00,
2013-09-22 07:33:00,66.6,66.0,29.77,NNW,344,0.0,0.0,98,0.00,,,0.37,Wunderground v.1.15,2013-09-22 12:33:00,
2013-09-22 07:38:00,66.6,66.0,29.77,North,5,1.0,6.0,98,0.00,,,0.37,Wunderground v.1.15,2013-09-22 12:38:00,
2013-09-22 07:48:00,66.6,65.7,29.77,North,355,3.0,4.0,97,0.00,,,0.37,Wunderground v.1.15,2013-09-22 12:48:00,
2013-09-22 07:58:00,66.6,65.7,29.78,NNW,347,3.0,5.0,97,0.00,,,0.37,Wunderground v.1.15,2013-09-22 12:58:00,
2013-09-22 08:02:00,66.6,65.7,29.78,NNE,12,3.0,3.0,97,0.00,,,0.37,Wunderground v.1.15,2013-09-22 13:02:00,
2013-09-22 08:08:00,66.6,65.4,29.78,North,5,2.0,3.0,96,0.00,,,0.37,Wunderground v.1.15,2013-09-22 13:08:00,
2013-09-22 08:13:00,66.7,65.5,29.78,North,5,2.0,2.0,96,0.00,,,0.37,Wunderground v.1.15,2013-09-22 13:13:00,
2013-09-22 08:18:00,66.9,65.7,29.78,NNE,26,2.0,4.0,96,0.00,,,0.37,Wunderground v.1.15,2013-09-22 13:18:00,
2013-09-22 08:27:00,67.3,65.8,29.79,NNW,345,3.0,3.0,95,0.00,,,0.37,Wunderground v.1.15,2013-09-22 13:27:00,
2013-09-22 08:37:00,67.3,65.8,29.79,North,355,2.0,3.0,95,0.00,,,0.37,Wunderground v.1.15,2013-09-22 13:37:00,
2013-09-22 08:47:00,68.1,66.0,29.79,North,11,4.0,4.0,93,0.00,,,0.37,Wunderground v.1.15,2013-09-22 13:47:00,
2013-09-22 08:52:00,68.5,66.4,29.79,North,360,4.0,4.0,93,0.00,,,0.37,Wunderground v.1.15,2013-09-22 13:52:00,
2013-09-22 09:02:00,68.3,65.6,29.79,NNW,339,4.0,4.0,91,0.00,,,0.37,Wunderground v.1.15,2013-09-22 14:02:00,
2013-09-22 09:07:00,68.4,66.0,29.79,North,9,3.0,7.0,92,0.00,,,0.37,Wunderground v.1.15,2013-09-22 14:07:00,
2013-09-22 09:17:00,68.2,65.2,29.79,North,360,5.0,5.0,90,0.00,,,0.37,Wunderground v.1.15,2013-09-22 14:17:00,
2013-09-22 09:22:00,68.2,65.5,29.80,NNW,346,5.0,5.0,91,0.00,,,0.37,Wunderground v.1.15,2013-09-22 14:22:00,
2013-09-22 09:32:00,68.2,65.5,29.80,NNE,15,3.0,11.0,91,0.00,,,0.37,Wunderground v.1.15,2013-09-22 14:32:00,
2013-09-22 09:42:00,68.2,65.2,29.80,North,360,3.0,3.0,90,0.00,,,0.37,Wunderground v.1.15,2013-09-22 14:42:00,
2013-09-22 09:47:00,68.3,65.3,29.80,North,360,2.0,3.0,90,0.00,,,0.37,Wunderground v.1.15,2013-09-22 14:47:00,
2013-09-22 09:52:00,68.5,65.8,29.81,North,11,2.0,2.0,91,0.00,,,0.37,Wunderground v.1.15,2013-09-22 14:52:00,
2013-09-22 10:02:00,69.3,66.2,29.80,North,360,1.0,1.0,90,0.00,,,0.37,Wunderground v.1.15,2013-09-22 15:02:00,
2013-09-22 10:07:00,69.4,66.0,29.81,NNE,17,0.0,1.0,89,0.00,,,0.37,Wunderground v.1.15,2013-09-22 15:07:00,
2013-09-22 10:17:00,69.3,65.6,29.80,North,355,4.0,4.0,88,0.00,,,0.37,Wunderground v.1.15,2013-09-22 15:17:00,
2013-09-22 10:27:00,70.1,66.0,29.80,North,350,2.0,5.0,87,0.00,,,0.37,Wunderground v.1.15,2013-09-22 15:27:00,
2013-09-22 10:37:00,70.3,65.9,29.80,North,5,2.0,2.0,86,0.00,,,0.37,Wunderground v.1.15,2013-09-22 15:37:00,
2013-09-22 10:47:00,70.4,66.3,29.80,NNE,29,2.0,2.0,87,0.00,,,0.37,Wunderground v.1.15,2013-09-22 15:47:00,
2013-09-22 10:57:00,70.5,66.1,29.81,North,355,2.0,2.0,86,0.00,,,0.37,Wunderground v.1.15,2013-09-22 15:57:00,
2013-09-22 11:02:00,70.6,66.2,29.81,North,5,1.0,1.0,86,0.00,,,0.37,Wunderground v.1.15,2013-09-22 16:02:00,
2013-09-22 11:08:00,70.7,66.3,29.81,North,5,1.0,1.0,86,0.00,,,0.37,Wunderground v.1.15,2013-09-22 16:08:00,
2013-09-22 11:17:00,71.3,67.2,29.81,NE,44,0.0,1.0,87,0.00,,,0.37,Wunderground v.1.15,2013-09-22 16:17:00,
2013-09-22 11:27:00,71.4,66.7,29.80,North,350,1.0,1.0,85,0.00,,,0.37,Wunderground v.1.15,2013-09-22 16:27:00,
2013-09-22 11:37:00,71.6,66.2,29.80,North,351,3.0,4.0,83,0.00,,,0.37,Wunderground v.1.15,2013-09-22 16:37:00,
2013-09-22 11:42:00,71.8,66.4,29.80,North,355,4.0,4.0,83,0.00,,,0.37,Wunderground v.1.15,2013-09-22 16:42:00,
2013-09-22 11:47:00,72.2,66.4,29.81,NNE,12,4.0,4.0,82,0.00,,,0.37,Wunderground v.1.15,2013-09-22 16:47:00,
2013-09-22 11:57:00,73.4,67.6,29.80,North,360,1.0,4.0,82,0.00,,,0.37,Wunderground v.1.15,2013-09-22 16:57:00,
2013-09-22 12:03:00,74.2,68.0,29.80,North,360,2.0,4.0,81,0.00,,,0.37,Wunderground v.1.15,2013-09-22 17:03:00,
2013-09-22 12:08:00,74.5,67.9,29.80,North,5,1.0,4.0,80,0.00,,,0.37,Wunderground v.1.15,2013-09-22 17:08:00,
2013-09-22 12:13:00,74.8,67.5,29.80,NNW,348,2.0,2.0,78,0.00,,,0.37,Wunderground v.1.15,2013-09-22 17:13:00,
2013-09-22 12:22:00,75.1,68.1,29.80,NW,317,2.0,2.0,79,0.00,,,0.37,Wunderground v.1.15,2013-09-22 17:22:00,
2013-09-22 12:32:00,75.4,68.1,29.80,North,355,3.0,6.0,78,0.00,,,0.37,Wunderground v.1.15,2013-09-22 17:32:00,
2013-09-22 12:42:00,75.8,68.4,29.80,NNE,28,4.0,4.0,78,0.00,,,0.37,Wunderground v.1.15,2013-09-22 17:42:00,
2013-09-22 12:47:00,76.0,67.5,29.80,NNE,17,3.0,4.0,75,0.00,,,0.37,Wunderground v.1.15,2013-09-22 17:47:00,
2013-09-22 12:52:00,76.7,67.8,29.79,North,10,3.0,6.0,74,0.00,,,0.37,Wunderground v.1.15,2013-09-22 17:52:00,
2013-09-22 12:57:00,76.9,67.2,29.79,ENE,74,3.0,6.0,72,0.00,,,0.37,Wunderground v.1.15,2013-09-22 17:57:00,
2013-09-22 13:03:00,77.4,67.7,29.79,North,11,3.0,5.0,72,0.00,,,0.37,Wunderground v.1.15,2013-09-22 18:03:00,
2013-09-22 13:13:00,76.9,67.6,29.79,NNW,329,2.0,2.0,73,0.00,,,0.37,Wunderground v.1.15,2013-09-22 18:13:00,
2013-09-22 13:18:00,76.6,67.3,29.78,NNE,13,3.0,3.0,73,0.00,,,0.37,Wunderground v.1.15,2013-09-22 18:18:00,
2013-09-22 13:23:00,76.8,67.1,29.78,North,350,3.0,4.0,72,0.00,,,0.37,Wunderground v.1.15,2013-09-22 18:23:00,
2013-09-22 13:32:00,76.6,67.3,29.77,NW,316,2.0,2.0,73,0.00,,,0.37,Wunderground v.1.15,2013-09-22 18:32:00,
2013-09-22 13:43:00,76.1,68.0,29.77,NNW,340,2.0,3.0,76,0.00,,,0.37,Wunderground v.1.15,2013-09-22 18:43:00,
2013-09-22 13:48:00,75.8,67.7,29.77,North,355,3.0,7.0,76,0.00,,,0.37,Wunderground v.1.15,2013-09-22 18:48:00,
2013-09-22 13:58:00,75.9,67.4,29.77,North,5,5.0,6.0,75,0.00,,,0.37,Wunderground v.1.15,2013-09-22 18:58:00,
2013-09-22 14:03:00,76.2,67.7,29.77,North,360,5.0,5.0,75,0.00,,,0.37,Wunderground v.1.15,2013-09-22 19:03:00,
2013-09-22 14:12:00,76.9,67.2,29.76,NE,46,3.0,3.0,72,0.00,,,0.37,Wunderground v.1.15,2013-09-22 19:12:00,
2013-09-22 14:17:00,76.4,66.7,29.76,NE,35,3.0,5.0,72,0.00,,,0.37,Wunderground v.1.15,2013-09-22 19:17:00,
2013-09-22 14:27:00,76.3,66.6,29.76,NNE,15,4.0,5.0,72,0.00,,,0.37,Wunderground v.1.15,2013-09-22 19:27:00,
2013-09-22 14:37:00,76.2,66.5,29.76,NE,37,5.0,5.0,72,0.00,,,0.37,Wunderground v.1.15,2013-09-22 19:37:00,
2013-09-22 14:42:00,76.4,66.7,29.76,North,360,5.0,5.0,72,0.00,,,0.37,Wunderground v.1.15,2013-09-22 19:42:00,
2013-09-22 14:47:00,76.5,66.8,29.75,North,355,4.0,5.0,72,0.00,,,0.37,Wunderground v.1.15,2013-09-22 19:47:00,
2013-09-22 14:57:00,76.6,66.9,29.75,North,5,4.0,4.0,72,0.00,,,0.37,Wunderground v.1.15,2013-09-22 19:57:00,
2013-09-22 15:02:00,77.1,68.6,29.75,North,350,1.0,1.0,75,0.00,,,0.37,Wunderground v.1.15,2013-09-22 20:02:00,
2013-09-22 15:07:00,77.1,67.0,29.75,North,360,2.0,6.0,71,0.00,,,0.37,Wunderground v.1.15,2013-09-22 20:07:00,
2013-09-22 15:17:00,76.8,67.9,29.75,NNE,17,4.0,4.0,74,0.00,,,0.37,Wunderground v.1.15,2013-09-22 20:17:00,
2013-09-22 15:22:00,77.1,67.8,29.76,NNW,327,2.0,2.0,73,0.00,,,0.37,Wunderground v.1.15,2013-09-22 20:22:00,
2013-09-22 15:32:00,77.3,68.0,29.75,North,360,2.0,2.0,73,0.00,,,0.37,Wunderground v.1.15,2013-09-22 20:32:00,
2013-09-22 15:37:00,77.0,67.7,29.75,North,5,2.0,2.0,73,0.00,,,0.37,Wunderground v.1.15,2013-09-22 20:37:00,
2013-09-22 15:42:00,76.9,67.6,29.75,NNE,19,3.0,4.0,73,0.00,,,0.37,Wunderground v.1.15,2013-09-22 20:42:00,
2013-09-22 15:52:00,76.7,68.2,29.75,NNE,13,3.0,3.0,75,0.00,,,0.37,Wunderground v.1.15,2013-09-22 20:52:00,
2013-09-22 15:57:00,76.7,68.9,29.75,North,360,2.0,4.0,77,0.00,,,0.37,Wunderground v.1.15,2013-09-22 20:57:00,
2013-09-22 16:02:00,76.7,68.6,29.75,North,355,2.0,4.0,76,0.00,,,0.37,Wunderground v.1.15,2013-09-22 21:02:00,
2013-09-22 16:12:00,76.4,67.9,29.75,North,360,2.0,4.0,75,0.00,,,0.37,Wunderground v.1.15,2013-09-22 21:12:00,
2013-09-22 16:22:00,76.5,68.0,29.75,NNW,340,3.0,3.0,75,0.00,,,0.37,Wunderground v.1.15,2013-09-22 21:22:00,
2013-09-22 16:32:00,76.6,68.1,29.75,North,10,1.0,3.0,75,0.00,,,0.37,Wunderground v.1.15,2013-09-22 21:32:00,
2013-09-22 16:37:00,76.7,67.8,29.75,NE,39,2.0,10.0,74,0.00,,,0.37,Wunderground v.1.15,2013-09-22 21:37:00,
2013-09-22 16:47:00,76.3,67.0,29.75,North,355,4.0,5.0,73,0.00,,,0.37,Wunderground v.1.15,2013-09-22 21:47:00,
2013-09-22 16:52:00,76.1,66.8,29.75,North,355,3.0,7.0,73,0.00,,,0.37,Wunderground v.1.15,2013-09-22 21:52:00,
2013-09-22 16:58:00,76.0,67.1,29.75,NNE,12,3.0,7.0,74,0.00,,,0.37,Wunderground v.1.15,2013-09-22 21:58:00,
2013-09-22 17:03:00,76.0,67.1,29.75,North,360,3.0,3.0,74,0.00,,,0.37,Wunderground v.1.15,2013-09-22 22:03:00,
2013-09-22 17:12:00,75.8,67.7,29.75,NNE,13,1.0,4.0,76,0.00,,,0.37,Wunderground v.1.15,2013-09-22 22:12:00,
2013-09-22 17:17:00,75.6,67.1,29.75,North,360,2.0,4.0,75,0.00,,,0.37,Wunderground v.1.15,2013-09-22 22:17:00,
2013-09-22 17:27:00,75.2,66.7,29.76,NNE,18,2.0,4.0,75,0.00,,,0.37,Wunderground v.1.15,2013-09-22 22:27:00,
2013-09-22 17:32:00,75.1,66.6,29.76,North,355,2.0,3.0,75,0.00,,,0.37,Wunderground v.1.15,2013-09-22 22:32:00,
2013-09-22 17:37:00,75.0,66.1,29.76,NNE,31,1.0,3.0,74,0.00,,,0.37,Wunderground v.1.15,2013-09-22 22:37:00,
2013-09-22 17:47:00,74.7,66.6,29.76,North,360,0.0,4.0,76,0.00,,,0.37,Wunderground v.1.15,2013-09-22 22:47:00,
2013-09-22 17:58:00,74.7,67.0,29.77,North,350,1.0,4.0,77,0.00,,,0.37,Wunderground v.1.15,2013-09-22 22:58:00,
2013-09-22 18:03:00,74.5,66.8,29.76,North,5,1.0,1.0,77,0.00,,,0.37,Wunderground v.1.15,2013-09-22 23:03:00,
2013-09-22 18:12:00,74.1,67.2,29.77,North,360,0.0,0.0,79,0.00,,,0.37,Wunderground v.1.15,2013-09-22 23:12:00,
2013-09-22 18:17:00,74.0,67.1,29.77,North,5,0.0,0.0,79,0.00,,,0.37,Wunderground v.1.15,2013-09-22 23:17:00,
2013-09-22 18:28:00,73.5,67.3,29.77,North,5,0.0,0.0,81,0.00,,,0.37,Wunderground v.1.15,2013-09-22 23:28:00,
2013-09-22 18:33:00,73.1,67.3,29.78,North,5,0.0,0.0,82,0.00,,,0.37,Wunderground v.1.15,2013-09-22 23:33:00,
2013-09-22 18:43:00,72.7,66.5,29.78,North,360,0.0,0.0,81,0.00,,,0.37,Wunderground v.1.15,2013-09-22 23:43:00,
2013-09-22 18:52:00,72.5,67.4,29.78,North,5,0.0,0.0,84,0.00,,,0.37,Wunderground v.1.15,2013-09-22 23:52:00,
2013-09-22 18:58:00,72.3,67.2,29.78,North,360,0.0,0.0,84,0.00,,,0.37,Wunderground v.1.15,2013-09-22 23:58:00,
2013-09-22 19:08:00,72.1,67.3,29.78,North,5,0.0,0.0,85,0.00,,,0.37,Wunderground v.1.15,2013-09-23 00:08:00,
2013-09-22 19:13:00,71.8,67.4,29.78,North,5,0.0,0.0,86,0.00,,,0.37,Wunderground v.1.15,2013-09-23 00:13:00,
2013-09-22 19:23:00,71.4,67.3,29.79,North,5,0.0,0.0,87,0.00,,,0.37,Wunderground v.1.15,2013-09-23 00:23:00,
2013-09-22 19:33:00,70.8,67.1,29.79,North,5,0.0,0.0,88,0.00,,,0.37,Wunderground v.1.15,2013-09-23 00:33:00,
2013-09-22 19:38:00,70.5,67.1,29.79,North,5,0.0,0.0,89,0.00,,,0.37,Wunderground v.1.15,2013-09-23 00:38:00,
2013-09-22 19:48:00,70.1,66.4,29.79,North,360,0.0,0.0,88,0.00,,,0.37,Wunderground v.1.15,2013-09-23 00:48:00,
2013-09-22 19:53:00,70.2,66.1,29.79,North,360,0.0,0.0,87,0.00,,,0.37,Wunderground v.1.15,2013-09-23 00:53:00,
2013-09-22 20:02:00,70.4,66.3,29.79,North,360,0.0,0.0,87,0.00,,,0.37,Wunderground v.1.15,2013-09-23 01:02:00,
2013-09-22 20:08:00,70.4,66.3,29.79,North,360,0.0,0.0,87,0.00,,,0.37,Wunderground v.1.15,2013-09-23 01:08:00,
2013-09-22 20:18:00,70.1,66.0,29.79,North,5,0.0,0.0,87,0.00,,,0.37,Wunderground v.1.15,2013-09-23 01:18:00,
2013-09-22 20:23:00,69.9,66.2,29.79,North,5,0.0,0.0,88,0.00,,,0.37,Wunderground v.1.15,2013-09-23 01:23:00,
2013-09-22 20:33:00,69.8,66.1,29.80,North,360,0.0,0.0,88,0.00,,,0.37,Wunderground v.1.15,2013-09-23 01:33:00,
2013-09-22 20:38:00,69.8,66.1,29.80,North,5,0.0,0.0,88,0.00,,,0.37,Wunderground v.1.15,2013-09-23 01:38:00,
2013-09-22 20:48:00,69.6,65.6,29.80,North,360,0.0,0.0,87,0.00,,,0.37,Wunderground v.1.15,2013-09-23 01:48:00,
2013-09-22 20:53:00,69.6,65.6,29.80,North,360,0.0,0.0,87,0.00,,,0.37,Wunderground v.1.15,2013-09-23 01:53:00,
2013-09-22 20:58:00,69.5,65.5,29.80,North,360,0.0,0.0,87,0.00,,,0.37,Wunderground v.1.15,2013-09-23 01:58:00,
2013-09-22 21:03:00,69.4,65.7,29.80,North,360,0.0,0.0,88,0.00,,,0.37,Wunderground v.1.15,2013-09-23 02:03:00,
2013-09-22 21:12:00,69.1,65.4,29.80,North,360,0.0,0.0,88,0.00,,,0.37,Wunderground v.1.15,2013-09-23 02:12:00,
2013-09-22 21:22:00,68.7,65.6,29.79,North,360,0.0,0.0,90,0.00,,,0.37,Wunderground v.1.15,2013-09-23 02:22:00,
2013-09-22 21:27:00,68.5,65.4,29.79,North,360,0.0,0.0,90,0.00,,,0.37,Wunderground v.1.15,2013-09-23 02:27:00,
2013-09-22 21:32:00,68.4,65.4,29.79,North,5,0.0,0.0,90,0.00,,,0.37,Wunderground v.1.15,2013-09-23 02:32:00,
2013-09-22 21:37:00,68.4,65.0,29.79,North,360,0.0,0.0,89,0.00,,,0.37,Wunderground v.1.15,2013-09-23 02:37:00,
2013-09-22 21:42:00,68.4,64.7,29.80,North,5,0.0,0.0,88,0.00,,,0.37,Wunderground v.1.15,2013-09-23 02:42:00,
2013-09-22 21:47:00,68.6,64.9,29.80,North,5,0.0,0.0,88,0.00,,,0.37,Wunderground v.1.15,2013-09-23 02:47:00,
2013-09-22 21:57:00,68.6,64.6,29.80,North,360,0.0,0.0,87,0.00,,,0.37,Wunderground v.1.15,2013-09-23 02:57:00,
2013-09-22 22:02:00,68.5,64.5,29.80,North,360,0.0,0.0,87,0.00,,,0.37,Wunderground v.1.15,2013-09-23 03:02:00,
2013-09-22 22:07:00,68.4,64.7,29.80,North,360,0.0,0.0,88,0.00,,,0.37,Wunderground v.1.15,2013-09-23 03:07:00,
2013-09-22 22:12:00,68.3,64.6,29.79,NNE,15,0.0,0.0,88,0.00,,,0.37,Wunderground v.1.15,2013-09-23 03:12:00,
2013-09-22 22:17:00,68.3,64.3,29.79,North,5,0.0,4.0,87,0.00,,,0.37,Wunderground v.1.15,2013-09-23 03:17:00,
2013-09-22 22:27:00,68.5,64.1,29.79,NNW,344,0.0,2.0,86,0.00,,,0.37,Wunderground v.1.15,2013-09-23 03:27:00,
2013-09-22 22:32:00,68.4,64.0,29.80,NNW,344,0.0,0.0,86,0.00,,,0.37,Wunderground v.1.15,2013-09-23 03:32:00,
2013-09-22 22:37:00,68.4,64.0,29.79,NNW,348,0.0,0.0,86,0.00,,,0.37,Wunderground v.1.15,2013-09-23 03:37:00,
2013-09-22 22:42:00,68.4,63.7,29.79,North,360,0.0,0.0,85,0.00,,,0.37,Wunderground v.1.15,2013-09-23 03:42:00,
2013-09-22 22:52:00,68.5,63.5,29.79,North,5,1.0,3.0,84,0.00,,,0.37,Wunderground v.1.15,2013-09-23 03:52:00,
2013-09-22 23:02:00,68.6,63.6,29.80,North,350,1.0,1.0,84,0.00,,,0.37,Wunderground v.1.15,2013-09-23 04:02:00,
2013-09-22 23:07:00,68.7,63.7,29.80,NNW,346,0.0,2.0,84,0.00,,,0.37,Wunderground v.1.15,2013-09-23 04:07:00,
2013-09-22 23:12:00,68.7,63.7,29.80,NNE,13,0.0,0.0,84,0.00,,,0.37,Wunderground v.1.15,2013-09-23 04:12:00,
2013-09-22 23:17:00,68.5,64.1,29.80,North,9,0.0,0.0,86,0.00,,,0.37,Wunderground v.1.15,2013-09-23 04:17:00,
2013-09-22 23:22:00,68.5,63.5,29.80,NNE,13,0.0,0.0,84,0.00,,,0.37,Wunderground v.1.15,2013-09-23 04:22:00,
2013-09-22 23:32:00,68.6,63.6,29.80,NNW,344,0.0,4.0,84,0.00,,,0.37,Wunderground v.1.15,2013-09-23 04:32:00,
2013-09-22 23:37:00,68.8,63.4,29.80,NNE,14,0.0,4.0,83,0.00,,,0.37,Wunderground v.1.15,2013-09-23 04:37:00,
2013-09-22 23:42:00,68.8,63.1,29.79,North,5,0.0,0.0,82,0.00,,,0.37,Wunderground v.1.15,2013-09-23 04:42:00,
2013-09-22 23:47:00,68.6,63.6,29.79,North,355,0.0,2.0,84,0.00,,,0.37,Wunderground v.1.15,2013-09-23 04:47:00,
2013-09-22 23:52:00,68.5,63.1,29.80,NNW,347,1.0,1.0,83,0.00,,,0.37,Wunderground v.1.15,2013-09-23 04:52:00,
2013-09-22 23:57:00,68.4,63.0,29.80,NNW,348,0.0,1.0,83,0.00,,,0.00,Wunderground v.1.15,2013-09-23 04:57:00,